7 * 24
多渠道服务支持
STARLINK-36913(NORAD编号68031)是美国SpaceX公司星链(Starlink)卫星互联网星座中的一颗低轨卫星。星链项目旨在构建全球覆盖的低轨卫星互联网,为偏远地区、海上和空中等传统网络难以覆盖区域提供高速低延迟宽带服务,该卫星是星链大规模组网中的一员。作为低轨卫星,它运行在近地轨道,属于星链持续扩张部署中的卫星之一,助力星链实现更广泛的网络覆盖,不过该卫星的大规模部署也引发了业内对太空拥堵、天文观测干扰等问题的讨论。
美国
(US)
| 数据来源 | 国际轨道数据 |
| 星历时间: | 2026-09-13T10:16:36+0800 6小时前 查看轨道信息 |
| 半长轴: | 6843.64km |
| 偏心率: | 0.0001587 |
| 轨道倾角: | 97.286° |
| 近地点辐角 | 98.525° |
| 升交点赤经 | 203.545° |
| 平近点角 | 261.617° |
| 近地点: | 464.416km |
| 远地点: | 466.59km |
| 周期: | 93.905分钟 |
| 每日圈数: | 15.334587 |